| time (UTC) | temp F | wind direction | speed knots | gust knots | rain 1hr in | rain 24hr in | rain mn in | humidity % | barometer mb |
| 20260510214539 | 56 | 159 | 2.6 | 8.7 | 0.00 | 0.11 | 0.00 | 92 | 1012.8 |
| 20260510213039 | 58 | 180 | 3.5 | 10.4 | 0.00 | 0.11 | 0.00 | 89 | 1013.0 |
| 20260510211552 | 58 | 179 | 1.7 | 7.8 | 0.00 | 0.11 | 0.00 | 90 | 1012.8 |
| 20260510210044 | 58 | 170 | 2.6 | 8.7 | 0.00 | 0.11 | 0.00 | 89 | 1012.8 |
| 20260510204549 | 59 | 162 | 2.6 | 7.0 | 0.00 | 0.13 | 0.00 | 87 | 1012.7 |
| 20260510203040 | 61 | 184 | 3.5 | 8.7 | 0.00 | 0.13 | 0.00 | 86 | 1012.8 |
| 20260510201538 | 61 | 227 | 3.5 | 7.8 | 0.00 | 0.13 | 0.00 | 85 | 1013.0 |
| 20260510200045 | 62 | 198 | 3.5 | 9.6 | 0.00 | 0.13 | 0.00 | 85 | 1013.0 |
| 20260510194545 | 61 | 159 | 3.5 | 8.7 | 0.00 | 0.13 | 0.00 | 85 | 1013.0 |
| 20260510193042 | 62 | 203 | 3.5 | 7.8 | 0.00 | 0.13 | 0.00 | 85 | 1013.2 |
| 20260510191540 | 61 | 226 | 3.5 | 8.7 | 0.00 | 0.13 | 0.00 | 84 | 1013.5 |
| 20260510190042 | 62 | 200 | 2.6 | 7.8 | 0.00 | 0.13 | 0.00 | 83 | 1013.4 |
| 20260510184539 | 62 | 207 | 1.7 | 7.0 | 0.00 | 0.13 | 0.00 | 84 | 1013.5 |
| 20260510183037 | 60 | 259 | 2.6 | 7.0 | 0.00 | 0.13 | 0.00 | 90 | 1013.5 |
| 20260510181545 | 59 | 200 | 1.7 | 8.7 | 0.00 | 0.13 | 0.00 | 90 | 1013.6 |
| 20260510180046 | 58 | 174 | 1.7 | 7.8 | 0.00 | 0.13 | 0.00 | 92 | 1013.9 |
| 20260510174539 | 58 | 201 | 2.6 | 6.1 | 0.00 | 0.13 | 0.00 | 92 | 1014.0 |
| 20260510173038 | 58 | 234 | 4.3 | 8.7 | 0.00 | 0.13 | 0.00 | 90 | 1013.9 |
| 20260510171546 | 58 | 227 | 2.6 | 9.6 | 0.00 | 0.13 | 0.00 | 90 | 1014.0 |
| 20260510170109 | 59 | 211 | 1.7 | 7.0 | 0.00 | 0.13 | 0.00 | 91 | 1013.9 |
| 20260510164559 | 58 | 147 | 2.6 | 6.1 | 0.00 | 0.13 | 0.00 | 91 | 1013.7 |
| 20260510163043 | 58 | 167 | 2.6 | 6.1 | 0.00 | 0.13 | 0.00 | 91 | 1014.0 |
| 20260510161538 | 59 | 156 | 2.6 | 7.8 | 0.00 | 0.13 | 0.00 | 90 | 1014.0 |
| 20260510160039 | 60 | 157 | 1.7 | 7.8 | 0.00 | 0.13 | 0.00 | 90 | 1013.9 |
| 20260510154537 | 60 | 135 | 2.6 | 8.7 | 0.00 | 0.13 | 0.00 | 89 | 1013.8 |
| 20260510153048 | 60 | 186 | 1.7 | 7.0 | 0.00 | 0.13 | 0.00 | 92 | 1013.7 |
| 20260510151542 | 59 | 209 | 1.7 | 7.0 | 0.00 | 0.13 | 0.00 | 93 | 1014.0 |
| 20260510150043 | 58 | 265 | 0.9 | 4.3 | 0.00 | 0.13 | 0.00 | 96 | 1014.0 |
| 20260510144538 | 57 | 218 | 1.7 | 5.2 | 0.00 | 0.14 | 0.00 | 96 | 1014.1 |
| 20260510143045 | 56 | 192 | 0.9 | 3.5 | 0.00 | 0.14 | 0.00 | 96 | 1014.2 |
| 20260510141548 | 56 | 150 | 2.6 | 7.8 | 0.00 | 0.14 | 0.00 | 97 | 1014.0 |
| 20260510140046 | 56 | 219 | 2.6 | 6.1 | 0.00 | 0.14 | 0.00 | 99 | 1014.1 |
| 20260510134544 | 55 | 223 | 1.7 | 7.8 | 0.00 | 0.14 | 0.00 | 99 | 1013.9 |
| 20260510133042 | 55 | 172 | 1.7 | 5.2 | 0.00 | 0.14 | 0.00 | 99 | 1013.5 |
| 20260510131547 | 55 | 168 | 2.6 | 6.1 | 0.00 | 0.14 | 0.00 | 100 | 1013.5 |
| 20260510130047 | 55 | 143 | 1.7 | 4.3 | 0.00 | 0.14 | 0.00 | 100 | 1013.3 |
| 20260510124558 | 55 | 151 | 1.7 | 7.0 | 0.00 | 0.14 | 0.00 | 100 | 1013.4 |
| 20260510123045 | 54 | 177 | 1.7 | 6.1 | 0.00 | 0.14 | 0.00 | 100 | 1013.4 |
| 20260510121543 | 54 | 237 | 1.7 | 4.3 | 0.00 | 0.14 | 0.00 | 100 | 1013.6 |
| 20260510120043 | 54 | 186 | 0.9 | 4.3 | 0.00 | 0.14 | 0.00 | 100 | 1013.3 |
| 20260510114538 | 54 | 225 | 0.9 | 2.6 | 0.00 | 0.14 | 0.00 | 100 | 1013.4 |
| 20260510113040 | 54 | 0 | 0.0 | 1.7 | 0.00 | 0.14 | 0.00 | 100 | 1013.5 |
| 20260510111544 | 53 | 0 | 0.0 | 0.9 | 0.00 | 0.14 | 0.00 | 100 | 1013.4 |
| 20260510110046 | 53 | 0 | 0.0 | 0.9 | 0.00 | 0.14 | 0.00 | 100 | 1013.4 |
| 20260510104547 | 53 | 0 | 0.0 | 1.7 | 0.00 | 0.16 | 0.00 | 100 | 1013.1 |
| 20260510103040 | 53 | 0 | 0.0 | 1.7 | 0.00 | 0.16 | 0.00 | 100 | 1013.1 |
| 20260510101540 | 53 | 0 | 0.0 | 0.0 | 0.00 | 0.16 | 0.00 | 100 | 1013.2 |
| 20260510100037 | 52 | 0 | 0.0 | 1.7 | 0.00 | 0.16 | 0.00 | 99 | 1013.1 |
| 20260510094537 | 52 | 0 | 0.0 | 1.7 | 0.00 | 0.16 | 0.00 | 100 | 1012.8 |
| 20260510093037 | 52 | 0 | 0.0 | 0.9 | 0.00 | 0.16 | 0.00 | 100 | 1012.6 |
| 20260510091542 | 52 | 0 | 0.0 | 0.9 | 0.00 | 0.16 | 0.00 | 99 | 1012.5 |
| 20260510090045 | 52 | 0 | 0.0 | 0.0 | 0.00 | 0.16 | 0.00 | 99 | 1012.4 |
| 20260510084539 | 52 | 0 | 0.0 | 0.9 | 0.00 | 0.16 | 0.00 | 99 | 1012.4 |
| 20260510083052 | 52 | 0 | 0.0 | 1.7 | 0.00 | 0.16 | 0.00 | 99 | 1012.3 |
| 20260510081538 | 52 | 0 | 0.0 | 1.7 | 0.00 | 0.16 | 0.00 | 99 | 1012.3 |
| 20260510080045 | 52 | 238 | 0.0 | 2.6 | 0.00 | 0.16 | 0.00 | 99 | 1012.2 |
| 20260510074543 | 52 | 190 | 0.0 | 2.6 | 0.00 | 0.16 | 0.00 | 99 | 1012.3 |
| 20260510073040 | 51 | 0 | 0.0 | 1.7 | 0.00 | 0.16 | 0.00 | 99 | 1012.3 |
| 20260510071540 | 51 | 189 | 0.0 | 1.7 | 0.00 | 0.16 | 0.00 | 99 | 1012.1 |
| 20260510070039 | 51 | 161 | 0.9 | 4.3 | 0.00 | 0.16 | 0.00 | 99 | 1012.0 |
| 20260510064540 | 51 | 209 | 0.9 | 6.1 | 0.00 | 0.16 | 0.00 | 98 | 1012.1 |
| 20260510063038 | 51 | 197 | 0.9 | 3.5 | 0.00 | 0.16 | 0.00 | 98 | 1012.0 |
| 20260510061543 | 51 | 237 | 0.9 | 3.5 | 0.00 | 0.16 | 0.00 | 98 | 1011.9 |
| 20260510060042 | 52 | 204 | 0.9 | 4.3 | 0.00 | 0.16 | 0.00 | 98 | 1012.3 |
| 20260510054538 | 52 | 191 | 0.9 | 4.3 | 0.00 | 0.16 | 0.00 | 98 | 1012.2 |
| 20260510053038 | 52 | 182 | 0.9 | 5.2 | 0.00 | 0.16 | 0.00 | 98 | 1012.1 |
| 20260510051537 | 52 | 162 | 1.7 | 6.1 | 0.00 | 0.16 | 0.00 | 98 | 1012.0 |
| 20260510050041 | 52 | 155 | 0.9 | 4.3 | 0.00 | 0.16 | 0.00 | 98 | 1012.0 |
| 20260510044544 | 52 | 229 | 0.9 | 5.2 | 0.00 | 0.16 | 0.00 | 98 | 1012.1 |
| 20260510043040 | 52 | 0 | 0.9 | 7.8 | 0.00 | 0.16 | 0.00 | 98 | 1012.0 |
| 20260510041539 | 52 | 184 | 1.7 | 5.2 | 0.00 | 0.16 | 0.00 | 97 | 1012.2 |
| 20260510040039 | 52 | 165 | 1.7 | 3.5 | 0.00 | 0.16 | 0.00 | 97 | 1012.3 |
| 20260510034548 | 52 | 163 | 0.0 | 4.3 | 0.00 | 0.16 | 0.16 | 97 | 1012.3 |
| 20260510033053 | 51 | 0 | 0.9 | 2.6 | 0.01 | 0.16 | 0.16 | 97 | 1012.4 |
| 20260510031544 | 51 | 168 | 0.0 | 3.5 | 0.01 | 0.16 | 0.16 | 96 | 1012.3 |
| 20260510030043 | 51 | 192 | 0.9 | 4.3 | 0.04 | 0.16 | 0.16 | 96 | 1012.6 |
| 20260510024541 | 51 | 142 | 1.7 | 4.3 | 0.05 | 0.16 | 0.16 | 96 | 1012.5 |
| 20260510023037 | 51 | 146 | 0.0 | 4.3 | 0.04 | 0.15 | 0.15 | 95 | 1012.4 |
| 20260510021546 | 51 | 0 | 0.9 | 4.3 | 0.04 | 0.15 | 0.15 | 95 | 1012.3 |
| 20260510020045 | 52 | 117 | 0.9 | 6.1 | 0.01 | 0.12 | 0.12 | 94 | 1012.5 |
| 20260510014543 | 51 | 0 | 0.9 | 7.0 | 0.00 | 0.11 | 0.11 | 94 | 1012.7 |
| 20260510013040 | 51 | 180 | 0.9 | 7.0 | 0.00 | 0.11 | 0.11 | 95 | 1012.8 |
| 20260510011537 | 51 | 179 | 2.6 | 8.7 | 0.01 | 0.11 | 0.11 | 95 | 1012.9 |
| 20260510010043 | 51 | 161 | 3.5 | 8.7 | 0.01 | 0.11 | 0.11 | 96 | 1012.9 |
| 20260510004546 | 51 | 144 | 2.6 | 8.7 | 0.02 | 0.11 | 0.11 | 95 | 1013.0 |
| 20260510003057 | 51 | 133 | 3.5 | 8.7 | 0.03 | 0.11 | 0.11 | 95 | 1013.0 |
| 20260510001542 | 51 | 142 | 3.5 | 8.7 | 0.02 | 0.10 | 0.10 | 95 | 1013.1 |
| 20260510000042 | 51 | 189 | 2.6 | 7.8 | 0.03 | 0.10 | 0.10 | 95 | 1013.2 |
| 20260509234543 | 52 | 174 | 1.7 | 8.7 | 0.03 | 0.09 | 0.09 | 94 | 1013.3 |
| 20260509233047 | 52 | 204 | 3.5 | 8.7 | 0.02 | 0.08 | 0.08 | 93 | 1013.6 |
| 20260509231543 | 52 | 171 | 3.5 | 12.2 | 0.02 | 0.08 | 0.08 | 92 | 1013.8 |
| 20260509230051 | 53 | 207 | 2.6 | 9.6 | 0.01 | 0.07 | 0.07 | 93 | 1013.7 |
| 20260509224553 | 53 | 202 | 4.3 | 7.8 | 0.00 | 0.06 | 0.06 | 93 | 1013.6 |
| 20260509223047 | 53 | 234 | 3.5 | 11.3 | 0.01 | 0.06 | 0.06 | 93 | 1013.8 |
| 20260509221541 | 53 | 208 | 2.6 | 10.4 | 0.01 | 0.06 | 0.06 | 94 | 1013.7 |
| 20260509220038 | 53 | 225 | 2.6 | 9.6 | 0.01 | 0.06 | 0.06 | 94 | 1013.6 |